Time,TemperatureF,DewpointF,PressureIn,WindDirection,WindDirectionDegrees,WindSpeedMPH,WindSpeedGustMPH,Humidity,HourlyPrecipIn,Conditions,Clouds,dailyrainin,SolarRadiationWatts/m^2,SoftwareType,DateUTC
2013-03-01 00:01:00,49.0,22.0,30.46,ENE,68,1.0,4.0,34,-99.99,,,-99.99,0.000000,,2013-03-01 08:01:00,
2013-03-01 00:11:00,48.0,24.0,30.46,SSE,154,1.0,2.0,39,-99.99,,,-99.99,0.000000,,2013-03-01 08:11:00,
2013-03-01 00:22:00,44.0,27.0,30.46,SW,230,1.0,3.0,51,-99.99,,,-99.99,0.000000,,2013-03-01 08:22:00,
2013-03-01 00:32:00,41.0,28.0,30.46,ENE,70,1.0,2.0,60,-99.99,,,-99.99,0.000000,,2013-03-01 08:32:00,
2013-03-01 00:42:00,39.0,30.0,30.46,NNE,33,0.0,1.0,69,-99.99,,,-99.99,0.000000,,2013-03-01 08:42:00,
2013-03-01 00:52:00,38.0,30.0,30.46,NNE,20,0.0,1.0,71,-99.99,,,-99.99,0.000000,,2013-03-01 08:52:00,
2013-03-01 01:01:00,37.0,29.0,30.49,NE,49,0.0,1.0,72,-99.99,,,-99.99,0.000000,,2013-03-01 09:01:00,
2013-03-01 01:11:00,36.0,29.0,30.49,NE,39,0.0,1.0,75,-99.99,,,-99.99,0.000000,,2013-03-01 09:11:00,
2013-03-01 01:31:00,35.0,27.0,30.49,NNE,16,0.0,1.0,74,-99.99,,,-99.99,0.000000,,2013-03-01 09:31:00,
2013-03-01 01:52:00,34.0,27.0,30.46,NNE,33,0.0,1.0,76,-99.99,,,-99.99,0.000000,,2013-03-01 09:52:00,
2013-03-01 02:52:00,33.0,26.0,30.46,NNE,25,0.0,0.0,76,-99.99,,,-99.99,0.000000,,2013-03-01 10:52:00,
2013-03-01 03:01:00,33.0,26.0,30.46,NNE,25,0.0,0.0,76,-99.99,,,-99.99,0.000000,,2013-03-01 11:01:00,
2013-03-01 03:11:00,33.0,26.0,30.46,NNE,17,0.0,0.0,76,-99.99,,,-99.99,0.000000,,2013-03-01 11:11:00,
2013-03-01 03:22:00,33.0,26.0,30.46,NNE,17,0.0,0.0,76,-99.99,,,-99.99,0.000000,,2013-03-01 11:22:00,
2013-03-01 03:31:00,32.0,25.0,30.46,NE,36,0.0,1.0,75,-99.99,,,-99.99,0.000000,,2013-03-01 11:31:00,
2013-03-01 04:32:00,32.0,26.0,30.46,NE,37,0.0,1.0,79,-99.99,,,-99.99,0.000000,,2013-03-01 12:32:00,
2013-03-01 04:52:00,32.0,25.0,30.46,NNE,22,0.0,1.0,78,-99.99,,,-99.99,0.000000,,2013-03-01 12:52:00,
2013-03-01 05:11:00,32.0,26.0,30.46,NNE,31,0.0,1.0,79,-99.99,,,-99.99,0.000000,,2013-03-01 13:11:00,
2013-03-01 05:21:00,31.0,26.0,30.46,NNE,21,0.0,1.0,79,-99.99,,,-99.99,0.000000,,2013-03-01 13:21:00,
2013-03-01 05:32:00,31.0,26.0,30.46,NE,34,0.0,1.0,79,-99.99,,,-99.99,0.000000,,2013-03-01 13:32:00,
2013-03-01 05:51:00,31.0,26.0,30.46,NNE,26,0.0,0.0,79,-99.99,,,-99.99,0.000000,,2013-03-01 13:51:00,
2013-03-01 06:01:00,31.0,26.0,30.46,NE,34,0.0,1.0,80,-99.99,,,-99.99,0.000000,,2013-03-01 14:01:00,
2013-03-01 06:21:00,32.0,26.0,30.46,NE,36,1.0,2.0,78,-99.99,,,-99.99,0.000000,,2013-03-01 14:21:00,
2013-03-01 06:32:00,37.0,23.0,30.18,ENE,65,1.0,2.0,57,-99.99,,,-99.99,0.000000,,2013-03-01 14:32:00,
2013-03-01 06:41:00,42.0,21.0,30.46,NE,44,1.0,5.0,43,-99.99,,,-99.99,0.000000,,2013-03-01 14:41:00,
2013-03-01 06:52:00,41.0,25.0,30.46,NE,34,1.0,2.0,52,-99.99,,,-99.99,0.000000,,2013-03-01 14:52:00,
2013-03-01 07:01:00,39.0,26.0,30.46,North,8,1.0,2.0,60,-99.99,,,-99.99,0.000000,,2013-03-01 15:01:00,
2013-03-01 07:31:00,37.0,27.0,30.46,NE,35,1.0,3.0,66,-99.99,,,-99.99,10.000000,,2013-03-01 15:31:00,
2013-03-01 07:42:00,42.0,22.0,30.46,ENE,63,1.0,4.0,45,-99.99,,,-99.99,10.000000,,2013-03-01 15:42:00,
2013-03-01 07:52:00,43.0,23.0,30.46,ENE,60,1.0,4.0,45,-99.99,,,-99.99,20.000000,,2013-03-01 15:52:00,
2013-03-01 08:01:00,47.0,18.0,30.46,ENE,62,1.0,4.0,31,-99.99,,,-99.99,20.000000,,2013-03-01 16:01:00,
2013-03-01 08:11:00,47.0,18.0,-100.00,ENE,62,1.0,4.0,31,-99.99,,,-99.99,20.000000,,2013-03-01 16:11:00,
2013-03-01 08:21:00,51.0,14.0,-100.00,East,84,1.0,4.0,23,-99.99,,,-99.99,30.000000,,2013-03-01 16:21:00,
2013-03-01 08:31:00,52.0,14.0,30.46,East,80,1.0,4.0,22,-99.99,,,-99.99,40.000000,,2013-03-01 16:31:00,
2013-03-01 08:41:00,53.0,14.0,30.46,ENE,57,2.0,6.0,21,-99.99,,,-99.99,40.000000,,2013-03-01 16:41:00,
2013-03-01 08:51:00,53.0,15.0,30.46,East,93,1.0,7.0,22,-99.99,,,-99.99,40.000000,,2013-03-01 16:51:00,
2013-03-01 09:01:00,53.0,15.0,30.46,East,93,1.0,7.0,22,-99.99,,,-99.99,40.000000,,2013-03-01 17:01:00,
2013-03-01 09:11:00,54.0,15.0,30.46,ENE,76,1.0,5.0,21,-99.99,,,-99.99,40.000000,,2013-03-01 17:11:00,
2013-03-01 09:21:00,54.0,16.0,30.46,SE,129,1.0,2.0,22,-99.99,,,-99.99,40.000000,,2013-03-01 17:21:00,
2013-03-01 09:31:00,55.0,14.0,30.46,NE,35,1.0,3.0,20,-99.99,,,-99.99,80.000000,,2013-03-01 17:31:00,
2013-03-01 09:41:00,55.0,16.0,30.46,SSW,208,1.0,3.0,21,-99.99,,,-99.99,50.000000,,2013-03-01 17:41:00,
2013-03-01 09:52:00,51.0,23.0,30.46,NE,34,1.0,2.0,32,-99.99,,,-99.99,40.000000,,2013-03-01 17:52:00,
2013-03-01 10:01:00,51.0,21.0,30.46,NNE,20,1.0,2.0,30,-99.99,,,-99.99,40.000000,,2013-03-01 18:01:00,
2013-03-01 10:11:00,54.0,16.0,30.46,SSW,202,1.0,3.0,22,-99.99,,,-99.99,50.000000,,2013-03-01 18:11:00,
2013-03-01 10:22:00,56.0,19.0,30.46,SW,230,1.0,3.0,23,-99.99,,,-99.99,50.000000,,2013-03-01 18:22:00,
2013-03-01 10:31:00,56.0,20.0,30.46,WSW,253,1.0,3.0,24,-99.99,,,-99.99,60.000000,,2013-03-01 18:31:00,
2013-03-01 10:41:00,56.0,20.0,-100.00,WSW,253,1.0,3.0,24,-99.99,,,-99.99,60.000000,,2013-03-01 18:41:00,
2013-03-01 10:52:00,56.0,17.0,30.46,SSW,198,2.0,5.0,21,-99.99,,,-99.99,50.000000,,2013-03-01 18:52:00,
2013-03-01 11:01:00,59.0,16.0,30.46,SW,219,2.0,4.0,18,-99.99,,,-99.99,110.000000,,2013-03-01 19:01:00,
2013-03-01 11:11:00,59.0,16.0,-100.00,SW,219,2.0,4.0,18,-99.99,,,-99.99,110.000000,,2013-03-01 19:11:00,
2013-03-01 11:21:00,59.0,20.0,30.46,SSW,194,2.0,4.0,22,-99.99,,,-99.99,60.000000,,2013-03-01 19:21:00,
2013-03-01 11:31:00,60.0,18.0,30.46,SW,214,2.0,6.0,19,-99.99,,,-99.99,70.000000,,2013-03-01 19:31:00,
2013-03-01 11:41:00,61.0,14.0,30.46,SSW,208,2.0,5.0,16,-99.99,,,-99.99,420.000000,,2013-03-01 19:41:00,
2013-03-01 11:50:00,59.0,17.0,-100.00,SSE,156,1.0,3.0,19,-99.99,,,-99.99,890.000000,,2013-03-01 19:50:00,
2013-03-01 11:51:00,61.0,14.0,30.46,SW,232,2.0,5.0,16,-99.99,,,-99.99,560.000000,,2013-03-01 19:51:00,
2013-03-01 12:01:00,60.0,17.0,30.46,SW,234,2.0,6.0,19,-99.99,,,-99.99,890.000000,,2013-03-01 20:01:00,
2013-03-01 12:11:00,60.0,18.0,30.46,SSW,210,1.0,3.0,19,-99.99,,,-99.99,890.000000,,2013-03-01 20:11:00,
2013-03-01 12:21:00,59.0,17.0,-100.00,SSE,156,1.0,3.0,19,-99.99,,,-99.99,890.000000,,2013-03-01 20:21:00,
2013-03-01 12:31:00,59.0,17.0,-100.00,SSE,156,1.0,3.0,19,-99.99,,,-99.99,890.000000,,2013-03-01 20:31:00,
2013-03-01 12:41:00,59.0,17.0,-100.00,SSE,156,1.0,3.0,19,-99.99,,,-99.99,890.000000,,2013-03-01 20:41:00,
2013-03-01 13:01:00,61.0,20.0,30.42,South,170,1.0,3.0,20,-99.99,,,-99.99,880.000000,,2013-03-01 21:01:00,
2013-03-01 13:11:00,61.0,20.0,-100.00,South,170,1.0,3.0,20,-99.99,,,-99.99,880.000000,,2013-03-01 21:11:00,
2013-03-01 13:21:00,62.0,20.0,-100.00,SSE,168,1.0,3.0,20,-99.99,,,-99.99,870.000000,,2013-03-01 21:21:00,
2013-03-01 13:31:00,62.0,20.0,-100.00,SSE,168,1.0,3.0,20,-99.99,,,-99.99,870.000000,,2013-03-01 21:31:00,
2013-03-01 13:41:00,62.0,20.0,-100.00,SSE,168,1.0,3.0,20,-99.99,,,-99.99,870.000000,,2013-03-01 21:41:00,
2013-03-01 13:51:00,62.0,20.0,30.42,SW,220,1.0,3.0,19,-99.99,,,-99.99,810.000000,,2013-03-01 21:51:00,
2013-03-01 14:01:00,62.0,19.0,30.42,North,350,1.0,2.0,19,-99.99,,,-99.99,790.000000,,2013-03-01 22:01:00,
2013-03-01 14:11:00,62.0,19.0,-100.00,North,350,1.0,2.0,19,-99.99,,,-99.99,790.000000,,2013-03-01 22:11:00,
2013-03-01 14:21:00,63.0,21.0,-100.00,West,276,1.0,2.0,20,-99.99,,,-99.99,770.000000,,2013-03-01 22:21:00,
2013-03-01 14:31:00,63.0,20.0,30.42,SSE,158,1.0,3.0,19,-99.99,,,-99.99,740.000000,,2013-03-01 22:31:00,
2013-03-01 14:41:00,62.0,20.0,30.42,South,173,1.0,2.0,19,-99.99,,,-99.99,720.000000,,2013-03-01 22:41:00,
2013-03-01 14:51:00,62.0,20.0,30.39,South,171,1.0,2.0,20,-99.99,,,-99.99,670.000000,,2013-03-01 22:51:00,
2013-03-01 15:01:00,62.0,20.0,30.39,South,171,1.0,2.0,20,-99.99,,,-99.99,670.000000,,2013-03-01 23:01:00,
2013-03-01 15:11:00,62.0,20.0,-100.00,South,171,1.0,2.0,20,-99.99,,,-99.99,670.000000,,2013-03-01 23:11:00,
2013-03-01 15:21:00,61.0,22.0,30.39,SSW,202,1.0,3.0,22,-99.99,,,-99.99,50.000000,,2013-03-01 23:21:00,
2013-03-01 15:31:00,60.0,19.0,30.39,WSW,248,1.0,2.0,20,-99.99,,,-99.99,240.000000,,2013-03-01 23:31:00,
2013-03-01 15:41:00,60.0,19.0,-100.00,WSW,248,1.0,2.0,20,-99.99,,,-99.99,240.000000,,2013-03-01 23:41:00,
2013-03-01 15:50:00,58.0,27.0,30.39,SSE,154,0.0,1.0,30,-99.99,,,-99.99,210.000000,,2013-03-01 23:50:00,
2013-03-01 15:52:00,60.0,19.0,30.39,West,272,1.0,2.0,20,-99.99,,,-99.99,70.000000,,2013-03-01 23:52:00,
2013-03-01 16:01:00,59.0,19.0,30.39,North,1,1.0,2.0,21,-99.99,,,-99.99,40.000000,,2013-03-02 00:01:00,
2013-03-01 16:11:00,59.0,21.0,30.39,South,173,0.0,2.0,23,-99.99,,,-99.99,70.000000,,2013-03-02 00:11:00,
2013-03-01 16:21:00,58.0,27.0,30.39,SSE,154,0.0,1.0,30,-99.99,,,-99.99,210.000000,,2013-03-02 00:21:00,
2013-03-01 16:31:00,58.0,27.0,-100.00,SSE,154,0.0,1.0,30,-99.99,,,-99.99,210.000000,,2013-03-02 00:31:00,
2013-03-01 16:41:00,58.0,27.0,30.39,SSE,154,0.0,1.0,30,-99.99,,,-99.99,210.000000,,2013-03-02 00:41:00,
2013-03-01 17:11:00,52.0,32.0,30.39,NE,54,1.0,1.0,47,-99.99,,,-99.99,30.000000,,2013-03-02 01:11:00,
2013-03-01 17:31:00,48.0,31.0,30.39,NE,56,0.0,1.0,52,-99.99,,,-99.99,10.000000,,2013-03-02 01:31:00,
2013-03-01 17:41:00,47.0,31.0,30.42,NE,54,0.0,1.0,53,-99.99,,,-99.99,10.000000,,2013-03-02 01:41:00,
2013-03-01 17:51:00,46.0,30.0,30.42,NE,56,1.0,1.0,54,-99.99,,,-99.99,10.000000,,2013-03-02 01:51:00,
2013-03-01 18:01:00,45.0,30.0,30.42,ENE,60,0.0,1.0,55,-99.99,,,-99.99,0.000000,,2013-03-02 02:01:00,
2013-03-01 18:11:00,45.0,30.0,30.42,NE,53,0.0,1.0,56,-99.99,,,-99.99,0.000000,,2013-03-02 02:11:00,
2013-03-01 18:21:00,44.0,30.0,30.42,NE,56,0.0,1.0,57,-99.99,,,-99.99,0.000000,,2013-03-02 02:21:00,
2013-03-01 18:41:00,43.0,29.0,30.42,NE,53,0.0,1.0,59,-99.99,,,-99.99,0.000000,,2013-03-02 02:41:00,
2013-03-01 18:52:00,43.0,29.0,30.42,NE,53,0.0,1.0,59,-99.99,,,-99.99,0.000000,,2013-03-02 02:52:00,
2013-03-01 19:01:00,41.0,30.0,30.42,NE,51,0.0,0.0,65,-99.99,,,-99.99,0.000000,,2013-03-02 03:01:00,
2013-03-01 19:11:00,41.0,30.0,30.42,NE,40,0.0,0.0,66,-99.99,,,-99.99,0.000000,,2013-03-02 03:11:00,
2013-03-01 19:21:00,40.0,30.0,30.42,NE,36,0.0,1.0,68,-99.99,,,-99.99,0.000000,,2013-03-02 03:21:00,
2013-03-01 19:32:00,39.0,30.0,30.42,NE,34,0.0,0.0,69,-99.99,,,-99.99,0.000000,,2013-03-02 03:32:00,
2013-03-01 19:52:00,39.0,30.0,30.42,NNE,25,0.0,0.0,70,-99.99,,,-99.99,0.000000,,2013-03-02 03:52:00,
2013-03-01 20:01:00,38.0,29.0,30.42,NNE,29,0.0,0.0,70,-99.99,,,-99.99,0.000000,,2013-03-02 04:01:00,
2013-03-01 20:11:00,38.0,29.0,30.42,NNE,27,0.0,0.0,69,-99.99,,,-99.99,0.000000,,2013-03-02 04:11:00,
2013-03-01 20:21:00,38.0,29.0,30.42,NE,37,0.0,0.0,69,-99.99,,,-99.99,0.000000,,2013-03-02 04:21:00,
2013-03-01 21:12:00,37.0,29.0,30.46,NNE,18,0.0,0.0,73,-99.99,,,-99.99,0.000000,,2013-03-02 05:12:00,
2013-03-01 21:22:00,37.0,28.0,30.46,NE,35,0.0,0.0,72,-99.99,,,-99.99,0.000000,,2013-03-02 05:22:00,
2013-03-01 21:31:00,36.0,29.0,30.46,NNE,23,0.0,0.0,75,-99.99,,,-99.99,0.000000,,2013-03-02 05:31:00,
2013-03-01 22:41:00,35.0,29.0,30.46,NNE,21,0.0,0.0,76,-99.99,,,-99.99,0.000000,,2013-03-02 06:41:00,
2013-03-01 22:51:00,35.0,29.0,30.46,NNE,33,0.0,0.0,76,-99.99,,,-99.99,0.000000,,2013-03-02 06:51:00,
2013-03-01 23:01:00,35.0,29.0,30.46,NNE,24,0.0,0.0,77,-99.99,,,-99.99,0.000000,,2013-03-02 07:01:00,
2013-03-01 23:11:00,35.0,28.0,30.46,NNE,29,0.0,0.0,76,-99.99,,,-99.99,0.000000,,2013-03-02 07:11:00,
2013-03-01 23:21:00,35.0,28.0,30.46,NNE,29,0.0,0.0,76,-99.99,,,-99.99,0.000000,,2013-03-02 07:21:00,
2013-03-01 23:32:00,35.0,28.0,30.46,NNE,29,0.0,0.0,78,-99.99,,,-99.99,0.000000,,2013-03-02 07:32:00,
2013-03-01 23:51:00,34.0,28.0,30.46,NNE,25,0.0,0.0,78,-99.99,,,-99.99,0.000000,,2013-03-02 07:51:00,